• In Netherlands
  • List of Countries
  • For 7 days
  • Water Temperature
  • Satellite Maps
  • Weather Map
  • Weather Widgets
  • user-avatar
    Login

    Hourly Weather Río Gallegos

    Today, 30 April, Sunday

    Time Temperature Precipitation Wind Pressure Humidity
    00:00 +5°C° 0 mm 2 mps 752 mmHg 76%
    01:00 +5°C° 0 mm 2 mps 752 mmHg 77%
    02:00 +6°C° 0 mm 1 mps 752 mmHg 76%
    03:00 +6°C° 0 mm 1 mps 752 mmHg 76%
    04:00 +6°C° 0 mm 1 mps 752 mmHg 75%
    05:00 +5°C° 0 mm 2 mps 752 mmHg 75%
    06:00 +5°C° 0 mm 2 mps 752 mmHg 74%
    07:00 +5°C° 0 mm 2 mps 753 mmHg 73%
    08:00 +5°C° 0 mm 3 mps 753 mmHg 72%
    09:00 +6°C° 0 mm 4 mps 753 mmHg 71%
    10:00 +7°C° 0 mm 6 mps 753 mmHg 70%
    11:00 +8°C° 0 mm 6 mps 753 mmHg 70%
    12:00 +8°C° 0 mm 7 mps 752 mmHg 71%
    13:00 +9°C° 0 mm 7 mps 752 mmHg 71%
    14:00 +9°C° 0 mm 7 mps 752 mmHg 75%
    15:00 +8°C° 0 mm 7 mps 751 mmHg 80%
    16:00 +8°C° 0 mm 7 mps 751 mmHg 85%
    17:00 +8°C° 0.1 mm 7 mps 751 mmHg 88%
    18:00 +8°C° 0.1 mm 7 mps 750 mmHg 91%
    19:00 +8°C° 0.1 mm 7 mps 750 mmHg 95%
    20:00 +8°C° 0.2 mm 7 mps 749 mmHg 95%
    21:00 +8°C° 0.2 mm 7 mps 748 mmHg 95%
    22:00 +7°C° 0.2 mm 8 mps 748 mmHg 94%
    23:00 +8°C° 0 mm 7 mps 747 mmHg 95%

    Tomorrow, 1 May, Monday

    Time Temperature Precipitation Wind Pressure Humidity
    00:00 +8°C° 0 mm 6 mps 747 mmHg 96%
    01:00 +8°C° 0 mm 5 mps 746 mmHg 97%
    02:00 +8°C° 0 mm 4 mps 745 mmHg 96%
    03:00 +8°C° 0 mm 4 mps 745 mmHg 95%
    04:00 +9°C° 0 mm 3 mps 744 mmHg 94%
    05:00 +9°C° 0.1 mm 3 mps 744 mmHg 93%
    06:00 +9°C° 0.1 mm 2 mps 744 mmHg 92%
    07:00 +8°C° 0.1 mm 2 mps 744 mmHg 92%
    08:00 +9°C° 0 mm 2 mps 744 mmHg 89%
    09:00 +10°C° 0 mm 2 mps 743 mmHg 86%
    10:00 +12°C° 0 mm 2 mps 743 mmHg 83%
    11:00 +12°C° 0.1 mm 2 mps 742 mmHg 82%
    12:00 +11°C° 0.1 mm 3 mps 742 mmHg 81%
    13:00 +12°C° 0.1 mm 3 mps 741 mmHg 80%
    14:00 +11°C° 0.1 mm 3 mps 740 mmHg 83%
    15:00 +11°C° 0.1 mm 3 mps 740 mmHg 86%
    16:00 +11°C° 0.1 mm 3 mps 739 mmHg 89%
    17:00 +10°C° 0.1 mm 3 mps 739 mmHg 90%
    18:00 +10°C° 0.1 mm 3 mps 739 mmHg 91%
    19:00 +10°C° 0.1 mm 3 mps 738 mmHg 92%
    20:00 +9°C° 0 mm 3 mps 738 mmHg 93%
    21:00 +8°C° 0 mm 4 mps 738 mmHg 94%
    22:00 +8°C° 0 mm 4 mps 738 mmHg 95%
    23:00 +7°C° 0 mm 4 mps 738 mmHg 95%

    Day after tomorrow, 2 May, Tuesday

    Time Temperature Precipitation Wind Pressure Humidity
    00:00 +8°C° 0 mm 3 mps 738 mmHg 95%
    01:00 +8°C° 0 mm 3 mps 737 mmHg 94%
    02:00 +8°C° 0 mm 3 mps 737 mmHg 94%
    03:00 +8°C° 0 mm 2 mps 737 mmHg 94%
    04:00 +8°C° 0 mm 2 mps 737 mmHg 94%
    05:00 +7°C° 0.3 mm 2 mps 737 mmHg 94%
    06:00 +7°C° 0.3 mm 3 mps 737 mmHg 94%
    07:00 +7°C° 0.3 mm 3 mps 737 mmHg 94%
    08:00 +5°C° 2.6 mm 6 mps 737 mmHg 89%
    09:00 +5°C° 2.6 mm 9 mps 738 mmHg 83%
    10:00 +3°C° 2.6 mm 12 mps 739 mmHg 77%
    11:00 +4°C° 0.2 mm 12 mps 740 mmHg 74%
    12:00 +4°C° 0.2 mm 12 mps 741 mmHg 70%
    13:00 +5°C° 0.2 mm 12 mps 742 mmHg 67%
    14:00 +4°C° 0 mm 12 mps 743 mmHg 66%
    15:00 +4°C° 0 mm 12 mps 744 mmHg 65%
    16:00 +4°C° 0 mm 12 mps 745 mmHg 64%
    17:00 +3°C° 0 mm 11 mps 746 mmHg 66%
    18:00 +3°C° 0 mm 11 mps 747 mmHg 67%
    19:00 +2°C° 0 mm 11 mps 748 mmHg 69%
    20:00 +2°C° 0 mm 10 mps 749 mmHg 69%
    21:00 +2°C° 0 mm 10 mps 749 mmHg 70%
    22:00 +2°C° 0 mm 10 mps 750 mmHg 70%
    23:00 +2°C° 0 mm 10 mps 750 mmHg 68%

    3 May, Wednesday

    Time Temperature Precipitation Wind Pressure Humidity
    00:00 +2°C° 0 mm 11 mps 750 mmHg 66%
    01:00 +2°C° 0 mm 11 mps 750 mmHg 64%
    02:00 +2°C° 0 mm 10 mps 751 mmHg 64%
    03:00 +2°C° 0 mm 10 mps 751 mmHg 65%
    04:00 +2°C° 0 mm 9 mps 751 mmHg 65%
    05:00 +1°C° 0 mm 8 mps 751 mmHg 65%
    06:00 +2°C° 0 mm 7 mps 751 mmHg 66%
    07:00 +2°C° 0 mm 5 mps 751 mmHg 66%
    08:00 +2°C° 0 mm 5 mps 750 mmHg 64%
    09:00 +3°C° 0 mm 5 mps 750 mmHg 61%
    10:00 +5°C° 0 mm 5 mps 749 mmHg 59%
    11:00 +5°C° 0.2 mm 7 mps 748 mmHg 62%
    12:00 +5°C° 0.2 mm 8 mps 746 mmHg 64%
    13:00 +5°C° 0.2 mm 9 mps 745 mmHg 67%
    14:00 +5°C° 1.7 mm 10 mps 743 mmHg 72%
    15:00 +5°C° 1.7 mm 10 mps 742 mmHg 78%
    16:00 +5°C° 1.7 mm 10 mps 740 mmHg 83%
    17:00 +4°C° 1 mm 11 mps 738 mmHg 82%
    18:00 +6°C° 1 mm 11 mps 737 mmHg 81%
    19:00 +7°C° 1 mm 12 mps 735 mmHg 80%
    20:00 +7°C° 0.1 mm 11 mps 734 mmHg 77%
    21:00 +8°C° 0.1 mm 11 mps 732 mmHg 74%
    22:00 +8°C° 0.1 mm 11 mps 731 mmHg 71%
    23:00 +8°C° 0 mm 10 mps 731 mmHg 71%

    4 May, Thursday

    Time Temperature Precipitation Wind Pressure Humidity
    00:00 +8°C° 0 mm 9 mps 730 mmHg 71%
    01:00 +7°C° 0 mm 8 mps 729 mmHg 71%
    02:00 +8°C° 0 mm 7 mps 729 mmHg 73%
    03:00 +7°C° 0 mm 6 mps 729 mmHg 76%
    04:00 +7°C° 0 mm 5 mps 728 mmHg 78%
    05:00 +5°C° 0.5 mm 6 mps 729 mmHg 83%
    06:00 +5°C° 0.5 mm 7 mps 730 mmHg 87%
    07:00 +5°C° 0.5 mm 8 mps 731 mmHg 91%
    08:00 +5°C° 0.2 mm 10 mps 733 mmHg 88%
    09:00 +4°C° 0.2 mm 11 mps 734 mmHg 85%
    10:00 +4°C° 0.2 mm 13 mps 736 mmHg 82%
    11:00 +5°C° 0.1 mm 13 mps 738 mmHg 78%
    12:00 +5°C° 0.1 mm 12 mps 740 mmHg 74%
    13:00 +5°C° 0.1 mm 12 mps 742 mmHg 70%
    14:00 +6°C° 0 mm 11 mps 744 mmHg 70%
    15:00 +4°C° 0 mm 11 mps 746 mmHg 69%
    16:00 +3°C° 0 mm 10 mps 747 mmHg 69%
    17:00 +3°C° 0 mm 9 mps 749 mmHg 71%
    18:00 +2°C° 0 mm 8 mps 751 mmHg 74%
    19:00 +2°C° 0 mm 8 mps 752 mmHg 76%
    20:00 +2°C° 0 mm 7 mps 753 mmHg 77%
    21:00 +2°C° 0 mm 7 mps 754 mmHg 78%
    22:00 +2°C° 0 mm 6 mps 755 mmHg 79%
    23:00 +1°C° 0 mm 6 mps 755 mmHg 81%

    5 May, Friday

    Time Temperature Precipitation Wind Pressure Humidity
    00:00 +1°C° 0 mm 5 mps 756 mmHg 82%
    01:00 +1°C° 0 mm 4 mps 756 mmHg 83%
    02:00 0°C° 0 mm 4 mps 757 mmHg 84%
    03:00 +1°C° 0 mm 3 mps 757 mmHg 85%
    04:00 +1°C° 0 mm 3 mps 757 mmHg 85%
    05:00 +2°C° 0 mm 2 mps 758 mmHg 86%
    06:00 +2°C° 0 mm 1 mps 758 mmHg 86%
    07:00 +2°C° 0 mm 1 mps 758 mmHg 86%
    08:00 +4°C° 0 mm 1 mps 758 mmHg 81%
    09:00 +4°C° 0 mm 2 mps 758 mmHg 77%
    10:00 +5°C° 0 mm 2 mps 758 mmHg 73%
    11:00 +4°C° 0 mm 4 mps 757 mmHg 72%
    12:00 +5°C° 0 mm 5 mps 757 mmHg 71%
    13:00 +4°C° 0 mm 6 mps 756 mmHg 70%
    14:00 +4°C° 0 mm 7 mps 755 mmHg 72%
    15:00 +4°C° 0 mm 7 mps 755 mmHg 75%
    16:00 +4°C° 0 mm 8 mps 754 mmHg 77%
    17:00 +4°C° 0.4 mm 8 mps 754 mmHg 79%
    18:00 +3°C° 0.4 mm 9 mps 753 mmHg 80%
    19:00 +3°C° 0.4 mm 9 mps 753 mmHg 82%
    20:00 +3°C° 1 mm 10 mps 753 mmHg 84%
    21:00 +3°C° 1 mm 10 mps 752 mmHg 87%
    22:00 +5°C° 1 mm 10 mps 751 mmHg 89%
    23:00 +5°C° 0.3 mm 10 mps 751 mmHg 89%
    Show more